Lacon, IL

12:45 PM CST on February 25, 2017 (GMT -0600)
Lacon

Weather History for KC75 - April, 2014

Change the Weather History Date:

Thursday, April 17, 2014

  Actual Average (KPIA) Record (KPIA)
Temperature  
Mean Temperature 50 °F -  
Max Temperature 58 °F 64 °F 88 °F (1894)
Min Temperature 42 °F 41 °F 24 °F (1907)
Degree Days  
Heating Degree Days 16    
Moisture  
Dew Point 35 °F    
Average Humidity 58    
Maximum Humidity 75    
Minimum Humidity 47    
Precipitation  
Precipitation 0.00 in - - ()
Sea Level Pressure  
Sea Level Pressure 30.19 in    
Wind  
Wind Speed 10 mph (SW)    
Max Wind Speed 17 mph    
Max Gust Speed 24 mph    
Visibility 10 miles    
Events      
Averages and records for this station are not official NWS values.
T = Trace of Precipitation, MM = Missing Value Source: NWS Daily Summary

Daily Weather History Graph

Daily Weather History Graph

Search for Another Location

Airport or City:

Trip Planner

Search our weather history database for the weather conditions in past years. The results will help you decide how hot, cold, wet, or windy it might be!

Date:

Astronomy

Apr. 17, 2014 Rise Set
Actual Time 6:15 AM CDT 7:39 PM CDT
Civil Twilight 5:46 AM CDT 8:08 PM CDT
Nautical Twilight 5:12 AM CDT 8:42 PM CDT
Astronomical Twilight 4:35 AM CDT 9:19 PM CDT
Moon 10:26 PM CDT (4/17) 7:46 AM CDT (4/17)
Length of Visible Light 14h 21m
Length of Day
13h 24m
Waning Gibbous, 93% of the Moon is Illuminated
Apr 17
Waning Gibbous
Apr 22
Last Quarter
Apr 29
New
May 6
First Quarter
May 14
Full

Hourly Weather History & Observations

Time (CDT) Temp. Windchill Dew Point Humidity Pressure Visibility Wind Dir Wind Speed Gust Speed Precip Events Conditions
12:15 AM 44.6 °F 38.1 °F 30.4 °F 57% 30.09 in 10.0 mi SSE 13.8 mph 18.4 mph N/A   Clear
12:35 AM 44.4 °F 38.2 °F 30.2 °F 57% 30.09 in 10.0 mi SSE 12.7 mph 20.7 mph N/A   Clear
12:55 AM 45.3 °F 38.7 °F 29.5 °F 54% 30.09 in 10.0 mi SSE 15.0 mph 23.0 mph N/A   Clear
1:15 AM 45.5 °F 38.3 °F 29.3 °F 53% 30.09 in 10.0 mi SSE 17.3 mph 23.0 mph N/A   Clear
1:35 AM 45.5 °F 39.2 °F 29.3 °F 53% 30.09 in 10.0 mi South 13.8 mph 21.9 mph N/A   Mostly Cloudy
1:55 AM 46.0 °F 39.3 °F 29.3 °F 52% 30.09 in 10.0 mi South 16.1 mph 24.2 mph N/A   Overcast
2:15 AM 45.5 °F 38.3 °F 29.5 °F 54% 30.08 in 10.0 mi South 17.3 mph 23.0 mph N/A   Overcast
2:35 AM 45.0 °F 38.2 °F 29.8 °F 55% 30.08 in 10.0 mi South 15.0 mph 21.9 mph N/A   Mostly Cloudy
2:55 AM 44.4 °F 38.2 °F 30.0 °F 57% 30.08 in 10.0 mi South 12.7 mph 20.7 mph N/A   Scattered Clouds
3:15 AM 44.1 °F 37.4 °F 30.2 °F 58% 30.08 in 10.0 mi South 13.8 mph 17.3 mph N/A   Mostly Cloudy
3:35 AM 43.9 °F 37.9 °F 30.2 °F 59% 30.08 in 10.0 mi South 11.5 mph 18.4 mph N/A   Scattered Clouds
3:55 AM 43.5 °F 37.1 °F 30.6 °F 60% 30.08 in 10.0 mi South 12.7 mph - N/A   Clear
4:15 AM 42.8 °F 37.5 °F 30.7 °F 62% 30.08 in 10.0 mi South 9.2 mph - N/A   Clear
4:35 AM 42.3 °F 37.3 °F 30.7 °F 64% 30.08 in 10.0 mi SSE 8.1 mph - N/A   Clear
4:55 AM 42.3 °F 37.9 °F 30.7 °F 64% 30.08 in 10.0 mi South 6.9 mph - N/A   Clear
5:15 AM 43.2 °F 37.9 °F 30.7 °F 62% 30.09 in 10.0 mi South 9.2 mph - N/A   Clear
5:35 AM 43.3 °F 37.7 °F 30.7 °F 61% 30.09 in 10.0 mi South 10.4 mph - N/A   Clear
5:55 AM 43.2 °F 38.4 °F 30.9 °F 62% 30.10 in 10.0 mi SSW 8.1 mph - N/A   Clear
6:15 AM 43.2 °F 37.9 °F 31.1 °F 62% 30.11 in 10.0 mi SSW 9.2 mph - N/A   Clear
6:35 AM 43.7 °F 38.6 °F 32.0 °F 63% 30.11 in 10.0 mi SSW 9.2 mph - N/A   Clear
6:55 AM 43.9 °F 38.8 °F 32.0 °F 63% 30.13 in 10.0 mi SSW 9.2 mph - N/A   Clear
7:15 AM 45.0 °F 40.1 °F 32.5 °F 62% 30.13 in 10.0 mi SW 9.2 mph - N/A   Clear
7:35 AM 46.0 °F 41.0 °F 32.9 °F 60% 30.14 in 10.0 mi SW 10.4 mph - N/A   Clear
7:55 AM 46.4 °F 41.5 °F 32.0 °F 57% 30.16 in 10.0 mi WSW 10.4 mph - N/A   Clear
8:15 AM 46.8 °F - 32.5 °F 58% 30.16 in 10.0 mi WSW 9.2 mph - N/A   Clear
8:35 AM 46.8 °F - 34.7 °F 63% 30.17 in 10.0 mi WSW 10.4 mph 17.3 mph N/A   Clear
8:55 AM 47.7 °F - 36.3 °F 65% 30.17 in 10.0 mi West 9.2 mph - N/A   Clear
9:15 AM 48.4 °F - 38.5 °F 69% 30.17 in 10.0 mi West 10.4 mph - N/A   Clear
9:35 AM 48.4 °F - 38.8 °F 70% 30.18 in 10.0 mi West 8.1 mph - N/A   Clear
9:55 AM 50.4 °F - 39.2 °F 66% 30.18 in 10.0 mi West 9.2 mph - N/A   Clear
10:15 AM 49.8 °F - 38.5 °F 65% 30.20 in 10.0 mi WSW 10.4 mph - N/A   Scattered Clouds
10:35 AM 50.7 °F - 38.5 °F 63% 30.21 in 10.0 mi West 11.5 mph - N/A   Scattered Clouds
10:55 AM 51.1 °F - 38.5 °F 62% 30.21 in 10.0 mi West 9.2 mph - N/A   Scattered Clouds
11:15 AM 51.4 °F - 38.5 °F 61% 30.23 in 10.0 mi West 9.2 mph - N/A   Scattered Clouds
11:35 AM 52.2 °F - 39.0 °F 61% 30.23 in 10.0 mi West 9.2 mph - N/A   Clear
11:55 AM 51.8 °F - 39.2 °F 62% 30.23 in 10.0 mi West 8.1 mph - N/A   Clear
12:15 PM 52.5 °F - 38.7 °F 59% 30.23 in 10.0 mi SW 9.2 mph - N/A   Clear
12:35 PM 53.1 °F - 38.5 °F 58% 30.22 in 10.0 mi WSW 6.9 mph - N/A   Clear
12:55 PM 53.8 °F - 38.5 °F 56% 30.23 in 10.0 mi West 9.2 mph - N/A   Clear
1:15 PM 54.7 °F - 38.1 °F 54% 30.23 in 10.0 mi WSW 6.9 mph - N/A   Clear
1:35 PM 55.2 °F - 38.3 °F 53% 30.23 in 10.0 mi West 6.9 mph - N/A   Clear
1:55 PM 56.3 °F - 39.0 °F 52% 30.23 in 10.0 mi West 8.1 mph - N/A   Clear
2:15 PM 57.2 °F - 39.2 °F 51% 30.23 in 10.0 mi WNW 10.4 mph - N/A   Clear
2:35 PM 57.4 °F - 38.8 °F 50% 30.22 in 10.0 mi Calm Calm - N/A   Clear
2:55 PM 57.7 °F - 38.3 °F 48% 30.22 in 10.0 mi WSW 9.2 mph - N/A   Clear
3:15 PM 57.4 °F - 38.1 °F 49% 30.21 in 10.0 mi WSW 8.1 mph - N/A   Clear
3:35 PM 57.6 °F - 37.6 °F 47% 30.21 in 10.0 mi West 8.1 mph - N/A   Clear
3:55 PM 57.9 °F - 38.1 °F 48% 30.21 in 10.0 mi West 6.9 mph - N/A   Clear
4:15 PM 57.4 °F - 38.7 °F 50% 30.21 in 10.0 mi West 8.1 mph - N/A   Clear
4:35 PM 57.0 °F - 39.0 °F 51% 30.21 in 10.0 mi West 8.1 mph - N/A   Clear
4:55 PM 55.9 °F - 38.3 °F 52% 30.23 in 10.0 mi West 9.2 mph - N/A   Clear
5:15 PM 55.4 °F - 38.1 °F 52% 30.23 in 10.0 mi WNW 6.9 mph - N/A   Clear
5:35 PM 54.9 °F - 37.8 °F 53% 30.24 in 10.0 mi West 6.9 mph 16.1 mph N/A   Clear
5:55 PM 54.5 °F - 37.4 °F 52% 30.24 in 10.0 mi West 6.9 mph - N/A   Clear
6:15 PM 54.3 °F - 37.4 °F 53% 30.24 in 10.0 mi West 6.9 mph - N/A   Clear
6:35 PM 53.6 °F - 37.6 °F 55% 30.24 in 10.0 mi West 6.9 mph - N/A   Clear
6:55 PM 53.1 °F - 36.7 °F 54% 30.25 in 10.0 mi West 5.8 mph - N/A   Clear
7:15 PM 52.7 °F - 36.1 °F 53% 30.25 in 10.0 mi West 5.8 mph - N/A   Scattered Clouds
7:35 PM 52.7 °F - 36.3 °F 54% 30.25 in 10.0 mi West 3.5 mph - N/A   Mostly Cloudy
7:55 PM 52.0 °F - 36.7 °F 56% 30.25 in 10.0 mi WSW 3.5 mph - N/A   Overcast
8:15 PM 51.6 °F - 36.5 °F 56% 30.25 in 10.0 mi SW 3.5 mph - N/A   Overcast
8:35 PM 50.2 °F - 36.7 °F 60% 30.25 in 10.0 mi SW 3.5 mph - N/A   Mostly Cloudy
8:55 PM 51.3 °F - 36.9 °F 58% 30.26 in 10.0 mi West 3.5 mph - N/A   Clear
9:15 PM 50.4 °F - 37.0 °F 60% 30.26 in 10.0 mi West 3.5 mph - N/A   Clear
9:35 PM 50.0 °F - 37.4 °F 62% 30.26 in 10.0 mi West 4.6 mph - N/A   Clear
9:55 PM 49.3 °F - 37.4 °F 64% 30.26 in 10.0 mi Calm Calm - N/A   Clear
10:15 PM 47.7 °F - 37.4 °F 68% 30.27 in 10.0 mi Calm Calm - N/A   Clear
10:35 PM 48.6 °F - 37.2 °F 65% 30.27 in 10.0 mi West 3.5 mph - N/A   Clear
10:55 PM 48.4 °F - 36.9 °F 64% 30.27 in 10.0 mi West 3.5 mph - N/A   Clear
11:15 PM 48.2 °F - 36.7 °F 64% 30.27 in 10.0 mi West 3.5 mph - N/A   Clear
11:35 PM 46.9 °F - 36.9 °F 68% 30.27 in 10.0 mi Calm Calm - N/A   Clear
11:55 PM 45.1 °F - 37.6 °F 75% 30.28 in 10.0 mi Calm Calm - N/A   Clear